This demonstration page uses our WeatherBlox Daily Observations layout. Learn more.

Hourly Observations for January 29, 2018

Temp ( °F °C ) Dew Point ( °F °C ) Humidity (%) Winds ( mph kmh ) Pressure ( in mb ) Visibility ( mi km ) Precip ( " mm )
12:15 am 00:15 Clear 14 -10.1 12 -11 93 93 Calm 30.77 1042 10 16.0934 0 0
12:35 am 00:35 Clear 13 -10.6 11 -11.6 92 92 N 5 7 30.77 1042 10 16.0934 0 0
12:55 am 00:55 Partly Cloudy 15 -9.7 13 -10.5 94 94 N 5 7 30.77 1042 10 16.0934 0 0
1:15 am 01:15 Mostly Cloudy 13 -10.4 11 -11.5 92 92 WNW 5 7 30.8 1043 10 16.0934 0 0
1:35 am 01:35 Cloudy 15 -9.5 13 -10.7 91 91 W 5 7 30.77 1042 10 16.0934 0 0
1:55 am 01:55 Cloudy 16 -9 14 -10.2 91 91 W 5 7 30.77 1042 10 16.0934 0 0
2:15 am 02:15 Cloudy 16 -9 14 -10.2 91 91 W 3 6 30.77 1042 10 16.0934 0 0
2:35 am 02:35 Cloudy 17 -8.6 14 -10.1 89 89 WNW 5 7 30.74 1041 10 16.0934 0 0
2:55 am 02:55 Cloudy 17 -8.5 14 -10.2 88 88 NW 6 9 30.74 1041 10 16.0934 0 0
3:15 am 03:15 Partly Cloudy 16 -8.8 13 -10.5 88 88 NW 3 6 30.74 1041 10 16.0934 0 0
3:35 am 03:35 Mostly Cloudy 16 -9 13 -10.5 89 89 Calm 30.74 1041 10 16.0934 0 0
3:55 am 03:55 Cloudy 17 -8.6 14 -10 90 90 WNW 5 7 30.74 1041 10 16.0934 0 0
4:15 am 04:15 Cloudy 17 -8.2 14 -9.8 88 88 WNW 6 9 30.74 1041 10 16.0934 0 0
4:35 am 04:35 Cloudy 18 -7.8 15 -9.5 88 88 NW 5 7 30.74 1041 10 16.0934 0 0
4:55 am 04:55 Cloudy 18 -7.6 15 -9.6 86 86 NNW 3 6 30.68 1039 10 16.0934 0 0
5:15 am 05:15 Cloudy 18 -7.6 14 -9.8 84 84 Calm 30.74 1041 10 16.0934 0 0
5:35 am 05:35 Cloudy 19 -7.5 14 -9.9 83 83 N 3 6 30.68 1039 10 16.0934 0 0
5:55 am 05:55 Cloudy 19 -7.5 14 -9.8 84 84 Calm 30.68 1039 10 16.0934 0 0
6:15 am 06:15 Cloudy 19 -7.5 14 -9.9 83 83 Calm 30.68 1039 10 16.0934 0 0
6:35 am 06:35 Cloudy 18 -7.6 14 -9.8 84 84 Calm 30.68 1039 10 16.0934 0 0
6:55 am 06:55 Cloudy 19 -7.5 15 -9.6 85 85 NE 3 6 30.71 1040 10 16.0934 0 0
7:15 am 07:15 Cloudy 19 -7.5 15 -9.5 86 86 NE 3 6 30.68 1039 10 16.0934 0 0
7:35 am 07:35 Cloudy 19 -7.5 15 -9.7 84 84 NE 3 6 30.68 1039 10 16.0934 0 0
7:55 am 07:55 Cloudy 19 -7.5 14 -10 83 83 Calm 30.68 1039 10 16.0934 0 0
8:15 am 08:15 Cloudy 19 -7.5 14 -9.9 83 83 Calm 30.68 1039 10 16.0934 0 0
8:35 am 08:35 Cloudy 19 -7.5 14 -10 83 83 Calm 30.68 1039 10 16.0934 0 0
8:55 am 08:55 Cloudy 19 -7.4 14 -10 82 82 Calm 30.68 1039 10 16.0934 0 0
9:15 am 09:15 Cloudy 19 -7 15 -9.6 82 82 Calm 30.68 1039 10 16.0934 0 0
9:35 am 09:35 Cloudy 20 -6.7 15 -9.5 81 81 Calm 30.68 1039 10 16.0934 0 0
9:55 am 09:55 Cloudy 21 -6.1 15 -9.3 78 78 Calm 30.68 1039 10 16.0934 0 0
10:15 am 10:15 Cloudy 22 -5.4 17 -8.6 78 78 SSE 5 7 30.68 1039 10 16.0934 0 0
10:35 am 10:35 Mostly Cloudy 23 -4.8 17 -8.5 76 76 S 5 7 30.65 1038 10 16.0934 0 0
10:55 am 10:55 Mostly Cloudy 25 -4 17 -8.2 73 73 S 3 6 30.65 1038 10 16.0934 0 0
11:15 am 11:15 Mostly Cloudy 26 -3.6 17 -8.3 70 70 SE 5 7 30.65 1038 10 16.0934 0 0
11:35 am 11:35 Mostly Cloudy 27 -2.9 18 -7.7 70 70 ESE 5 7 30.65 1038 10 16.0934 0 0
11:55 am 11:55 Mostly Cloudy 28 -2.4 18 -7.9 66 66 S 3 6 30.62 1037 10 16.0934 0 0
12:15 pm 12:15 Cloudy 29 -1.9 18 -7.7 65 65 S 7 11 30.59 1036 10 16.0934 0 0
12:35 pm 12:35 Cloudy 29 -1.9 18 -7.7 65 65 S 8 13 30.59 1036 10 16.0934 0 0
12:55 pm 12:55 Cloudy 29 -1.5 19 -7.4 65 65 S 10 17 30.56 1035 10 16.0934 0 0
1:15 pm 13:15 Cloudy 30 -1.3 19 -7.2 65 65 SSE 8 13 30.56 1035 10 16.0934 0 0
1:35 pm 13:35 Cloudy 31 -0.6 19 -7.2 61 61 S 8 13 30.56 1035 10 16.0934 0 0
1:55 pm 13:55 Cloudy 30 -1.1 18 -7.7 61 61 S 9 15 30.53 1034 10 16.0934 0 0
2:15 pm 14:15 Cloudy 31 -0.7 19 -7.5 60 60 S 9 15 30.53 1034 10 16.0934 0 0
2:35 pm 14:35 Cloudy 31 -0.5 19 -7.3 60 60 SSW 10 17 30.53 1034 10 16.0934 0 0
2:55 pm 14:55 Cloudy 31 -0.4 19 -7 61 61 S 10 17 30.5 1033 10 16.0934 0 0
3:15 pm 15:15 Cloudy 31 -0.4 20 -6.9 62 62 S 10 17 30.5 1033 10 16.0934 0 0
3:35 pm 15:35 Cloudy 31 -0.5 19 -7 62 62 S 8 13 30.5 1033 10 16.0934 0 0
3:55 pm 15:55 Cloudy 31 -0.5 19 -7 62 62 S 10 17 30.5 1033 10 16.0934 0 0
4:15 pm 16:15 Cloudy 31 -0.5 19 -7.2 61 61 SSE 10 17 30.5 1033 10 16.0934 0 0
4:35 pm 16:35 Cloudy 31 -0.5 19 -7 62 62 S 10 17 30.5 1033 10 16.0934 0 0
4:55 pm 16:55 Cloudy 31 -0.6 20 -6.9 63 63 SSE 8 13 30.5 1033 10 16.0934 0 0
5:15 pm 17:15 Cloudy 31 -0.7 20 -6.9 63 63 SSE 9 15 30.5 1033 10 16.0934 0 0
5:35 pm 17:35 Cloudy 31 -0.7 20 -6.8 64 64 SSE 8 13 30.48 1032 10 16.0934 0 0
5:55 pm 17:55 Cloudy 30 -0.9 20 -6.6 66 66 SSE 7 11 30.48 1032 10 16.0934 0 0
6:15 pm 18:15 Cloudy 29 -1.6 20 -6.7 69 69 SSE 7 11 30.48 1032 10 16.0934 0 0
6:35 pm 18:35 Partly Cloudy 28 -2.2 19 -7 70 70 SE 7 11 30.48 1032 10 16.0934 0 0
6:55 pm 18:55 Clear 27 -2.6 19 -7 72 72 SE 7 11 30.48 1032 10 16.0934 0 0
7:15 pm 19:15 Clear 25 -4 19 -7.5 77 77 SE 6 9 30.5 1033 10 16.0934 0 0
7:35 pm 19:35 Clear 24 -4.5 18 -7.6 79 79 SE 6 9 30.5 1033 10 16.0934 0 0
7:55 pm 19:55 Partly Cloudy 24 -4.6 18 -7.6 80 80 ESE 6 9 30.5 1033 10 16.0934 0 0
8:15 pm 20:15 Mostly Cloudy 26 -3.6 20 -6.7 79 79 SE 3 6 30.5 1033 10 16.0934 0 0
8:35 pm 20:35 Cloudy 26 -3.3 20 -6.6 78 78 ESE 6 9 30.48 1032 10 16.0934 0 0
8:55 pm 20:55 Cloudy 27 -3 20 -6.6 76 76 SE 7 11 30.48 1032 10 16.0934 0 0
9:15 pm 21:15 Cloudy 27 -2.8 20 -6.5 76 76 SE 8 13 30.45 1031 10 16.0934 0 0
9:35 pm 21:35 Cloudy 27 -3 20 -6.8 75 75 SE 8 13 30.45 1031 10 16.0934 0 0
9:55 pm 21:55 Partly Cloudy 25 -3.8 19 -7.2 78 78 SSE 8 13 30.48 1032 10 16.0934 0 0
10:15 pm 22:15 Clear 25 -4 19 -7.2 79 79 SSE 9 15 30.48 1032 10 16.0934 0 0
10:35 pm 22:35 Clear 25 -4 19 -7.3 78 78 SSE 9 15 30.48 1032 10 16.0934 0 0
10:55 pm 22:55 Clear 24 -4.2 18 -7.6 77 77 SSE 8 13 30.45 1031 10 16.0934 0 0
11:15 pm 23:15 Clear 24 -4.6 18 -7.7 79 79 SE 7 11 30.45 1031 10 16.0934 0 0
11:35 pm 23:35 Clear 23 -5 18 -7.9 80 80 SE 7 11 30.45 1031 10 16.0934 0 0
11:55 pm 23:55 Clear 23 -5 18 -8 80 80 SSE 8 13 30.42 1030 10 16.0934 0 0

Powered by AerisWeather